Location: Unspecified
(0.0000°N, 0.0000°E)
Time: 06:41:52
(UTC+00:00)

Vanguard 2 Rocket - Pass Details

Date: 06 October 2023
Orbit: 552 x 3312 km, 32.9° (Epoch: 06 December)

Event Time Altitude Azimuth Distance (km) Brightness Sun altitude
Rises 05:32:18 0° 246° (WSW) 3,289 - -4.0°
Exits shadow 05:32:23 - 246° (WSW) 3,261 9.2 -4.0°
Reaches altitude 10° 05:34:21 10° 251° (WSW) 2,560 8.7 -3.5°
Maximum altitude 05:40:22 58° 329° (NNW) 1,431 7.8 -2.0°
Drops below altitude 10° 05:51:02 10° 46° (NE) 4,414 11.1 0.7°
Sets 05:55:42 0° 49° (NE) 5,879 11.8 1.8°
